Location: Newark
(54.6833°N, 25.2833°E)
Time: 22:44:18
(UTC+00:00)

ISS - Visible Passes

Search period start: 07 May 2021 00:00
Search period end: 17 May 2021 00:00
Orbit: 418 x 421 km, 51.6° (Epoch: 07 May)

Date Brightness Start Highest point End Pass type
(mag) Time Alt. Az. Time Alt. Az. Time Alt. Az.
07 May -3.4 01:36:05 10° WSW 01:39:23 51° S 01:42:41 10° ESE visible
07 May -2.2 23:16:28 23° SE 23:16:28 23° SE 23:18:28 10° E visible
08 May -3.5 00:49:24 15° WSW 00:52:01 49° S 00:55:18 10° E visible
08 May -1.2 22:30:31 12° ESE 22:30:31 12° ESE 22:30:53 10° E visible
09 May -3.4 00:03:26 30° SW 00:04:39 44° S 00:07:54 10° E visible
09 May -3.2 23:17:27 38° SSE 23:17:27 38° SSE 23:20:29 10° E visible
10 May -3.5 00:50:33 10° W 00:53:50 50° S 00:57:08 10° ESE visible
10 May -2.1 22:31:25 22° ESE 22:31:25 22° ESE 22:33:03 10° E visible
11 May -3.6 00:04:21 20° WSW 00:06:28 51° S 00:09:46 10° ESE visible
11 May -1.2 21:45:21 11° E 21:45:21 11° E 21:45:33 10° E visible
11 May -3.6 23:18:16 38° SW 23:19:06 49° S 23:22:23 10° E visible
12 May -3.3 00:52:25 10° W 00:55:38 40° SSW 00:58:50 10° SE visible
12 May -3.3 22:32:07 42° SSE 22:32:07 42° SSE 22:34:59 10° E visible
13 May -3.5 00:05:02 10° W 00:08:17 46° S 00:11:32 10° ESE visible
13 May -2.4 21:45:45 26° ESE 21:45:45 26° ESE 21:47:33 10° E visible
13 May -3.6 23:18:38 18° WSW 23:20:55 49° S 23:24:11 10° ESE visible
14 May -2.8 00:54:26 10° W 00:57:20 27° SSW 01:00:15 10° SE visible
14 May -1.7 19:20:06 10° SSE 19:20:59 11° SE 19:21:48 10° SE visible
14 May -2.8 20:54:00 10° SW 20:57:46 29° SE 21:00:06 10° E visible
14 May -3.7 22:30:14 10° WSW 22:33:32 51° S 22:36:49 10° ESE visible
15 May -3.1 00:06:56 10° W 00:10:01 33° SSW 00:13:06 10° SE visible
15 May -2.7 20:06:52 10° SSW 20:09:44 26° SSE 20:12:36 10° E visible
15 May -3.6 21:42:52 10° WSW 21:46:09 49° S 21:49:25 10° E visible
15 May -3.4 23:19:29 10° W 23:22:41 40° SSW 23:25:53 10° SE visible
16 May -2.1 00:56:45 10° WSW 00:58:54 16° SSW 01:01:03 10° S visible
16 May -2.4 19:19:55 10° SSW 19:22:27 20° SSE 19:25:00 10° E visible
16 May -3.5 20:55:31 10° WSW 20:58:46 45° S 21:02:01 10° E visible
16 May -3.5 22:32:04 10° W 22:35:19 45° S 22:38:35 10° ESE visible
